Find Starlink 11530

NORAD ID: 62562 Int'l Des: 2025-006 Owner: SPXS Country: US Constellation: starlink operational
LEOCIRCULAR

Live Position

Loading 3D Globe...

About Starlink 11530

Description loading...

Upcoming Passes

Passes for default location (London). Set your location on the main map for personalized predictions.

Altitude History

Loading altitude history...

Two-Line Element Set

1 62562U 25006J 26123.40655639 .00202328 00000-0 15399-2 0 9992
2 62562 42.9999 170.4603 0001141 179.4501 180.6368 15.70876132 75206
Epoch: May 3, 2026 • Age: 18 hours

Current Status

Altitude 362.8 km
Velocity 7.69 km/s
Sub-Earth Point -29.49°S, 108.58°E
Launch Date Jan 10, 2025
Age 1.3 years
Type internet

Technical Details

Classification Payload
Mass 960.00 kg
Dry Mass 910.00 kg
Total Mass 960.00 kg
Length 0.30 m
Diameter 4.10 m
Span 29.00 m
Shape Box + pan
Manufacturer SPXS
Bus Type Starlink V2MD
Phase Status In Orbit
Owner/State SPXS/US

Most Searched